| time (UTC) | temp C | wind direction | speed KPH | gust KPH | rain 1hr cm | rain 24hr cm | rain mn cm | humidity % | barometer mb |
| 20260504213008 | 24 | 221 | 24.1 | 51.5 | 0.00 | 0.03 | 0.00 | 48 | 1003.3 |
| 20260504211505 | 23 | 222 | 12.9 | 38.6 | 0.00 | 0.03 | 0.00 | 50 | 1003.5 |
| 20260504210003 | 23 | 161 | 12.9 | 32.2 | 0.00 | 0.08 | 0.00 | 51 | 1003.5 |
| 20260504203105 | 23 | 266 | 11.3 | 40.2 | 0.00 | 0.08 | 0.00 | 52 | 1003.5 |
| 20260504201557 | 23 | 219 | 12.9 | 46.7 | 0.00 | 0.08 | 0.00 | 51 | 1003.7 |
| 20260504193050 | 24 | 224 | 20.9 | 43.5 | 0.00 | 0.08 | 0.00 | 51 | 1004.3 |
| 20260504191605 | 23 | 229 | 14.5 | 38.6 | 0.00 | 0.08 | 0.00 | 52 | 1004.1 |
| 20260504190049 | 24 | 187 | 17.7 | 48.3 | 0.00 | 0.08 | 0.00 | 52 | 1004.3 |
| 20260504183042 | 23 | 236 | 19.3 | 43.5 | 0.00 | 0.08 | 0.00 | 53 | 1004.4 |
| 20260504181539 | 23 | 231 | 24.1 | 40.2 | 0.00 | 0.08 | 0.00 | 53 | 1004.5 |
| 20260504180034 | 23 | 194 | 9.7 | 32.2 | 0.00 | 0.08 | 0.00 | 56 | 1004.5 |
| 20260504173030 | 22 | 291 | 11.3 | 33.8 | 0.00 | 0.08 | 0.00 | 58 | 1004.8 |
| 20260504171539 | 22 | 229 | 14.5 | 29.0 | 0.00 | 0.08 | 0.00 | 59 | 1005.1 |
| 20260504081522 | 11 | 165 | 0.0 | 11.3 | 0.00 | 0.08 | 0.00 | 73 | 1008.5 |
| 20260504044530 | 8 | 139 | 0.0 | 0.0 | 0.00 | 0.08 | 0.00 | 80 | 1010.3 |
| 20260504043038 | 8 | 131 | 0.0 | 1.6 | 0.00 | 0.08 | 0.00 | 81 | 1010.4 |
| 20260504041524 | 8 | 172 | 0.0 | 1.6 | 0.00 | 0.08 | 0.00 | 81 | 1010.5 |
| 20260504040024 | 8 | 123 | 0.0 | 0.0 | 0.00 | 0.08 | 0.00 | 81 | 1010.7 |
| 20260504034518 | 9 | 149 | 0.0 | 1.6 | 0.00 | 0.08 | 0.08 | 80 | 1010.8 |
| 20260504033019 | 9 | 95 | 0.0 | 1.6 | 0.00 | 0.08 | 0.08 | 80 | 1011.1 |
| 20260504031515 | 9 | 142 | 0.0 | 1.6 | 0.00 | 0.08 | 0.08 | 79 | 1011.2 |
| 20260504030016 | 10 | 135 | 0.0 | 4.8 | 0.00 | 0.08 | 0.08 | 78 | 1011.3 |
| 20260504024512 | 10 | 139 | 0.0 | 1.6 | 0.00 | 0.08 | 0.08 | 77 | 1011.4 |
| 20260504023010 | 10 | 207 | 0.0 | 6.4 | 0.00 | 0.08 | 0.08 | 76 | 1011.4 |
| 20260504021511 | 10 | 138 | 0.0 | 4.8 | 0.00 | 0.08 | 0.08 | 77 | 1011.6 |
| 20260504020006 | 10 | 81 | 0.0 | 11.3 | 0.00 | 0.08 | 0.08 | 77 | 1011.7 |
| 20260504014506 | 10 | 118 | 0.0 | 9.7 | 0.00 | 0.08 | 0.08 | 77 | 1011.8 |
| 20260504013003 | 10 | 138 | 0.0 | 9.7 | 0.00 | 0.08 | 0.08 | 77 | 1011.7 |
| 20260504011602 | 10 | 147 | 0.0 | 11.3 | 0.00 | 0.08 | 0.08 | 79 | 1011.7 |
| 20260504010104 | 9 | 155 | 0.0 | 12.9 | 0.00 | 0.08 | 0.08 | 80 | 1011.9 |
| 20260504004608 | 9 | 161 | 0.0 | 11.3 | 0.00 | 0.08 | 0.08 | 82 | 1011.9 |
| 20260504003054 | 9 | 97 | 0.0 | 6.4 | 0.00 | 0.08 | 0.08 | 82 | 1012.0 |
| 20260504001552 | 9 | 146 | 0.0 | 9.7 | 0.00 | 0.08 | 0.08 | 82 | 1011.9 |
| 20260504000049 | 9 | 115 | 3.2 | 12.9 | 0.00 | 0.08 | 0.08 | 82 | 1012.1 |
| 20260503234547 | 9 | 103 | 3.2 | 14.5 | 0.00 | 0.08 | 0.08 | 82 | 1012.3 |
| 20260503233047 | 9 | 117 | 6.4 | 17.7 | 0.00 | 0.08 | 0.08 | 80 | 1012.3 |
| 20260503231543 | 9 | 121 | 0.0 | 9.7 | 0.00 | 0.08 | 0.08 | 81 | 1012.5 |
| 20260503230141 | 9 | 58 | 1.6 | 9.7 | 0.00 | 0.08 | 0.08 | 81 | 1012.6 |
| 20260503224537 | 9 | 219 | 0.0 | 14.5 | 0.00 | 0.08 | 0.08 | 83 | 1012.6 |
| 20260503223038 | 8 | 159 | 0.0 | 16.1 | 0.00 | 0.08 | 0.08 | 83 | 1012.8 |
| 20260503221536 | 8 | 109 | 3.2 | 12.9 | 0.00 | 0.08 | 0.08 | 83 | 1012.9 |
| 20260503220031 | 8 | 125 | 4.8 | 16.1 | 0.05 | 0.08 | 0.08 | 83 | 1012.9 |